• Processing (Info)

  • MPEC 2015-N11 : 2015 MJ130

    The following Minor Planet Electronic Circular may be linked-to from your own Web pages, but must not otherwise be redistributed electronically.

    A form allowing access to any MPEC is at the bottom of this page.


    Read MPEC 2015-N10 Read MPEC 2015-N12


    M.P.E.C. 2015-N11                                Issued 2015 July 7, 14:10 UT
    
         The Minor Planet Electronic Circulars contain information on unusual
             minor planets and routine data on comets.  They are published
       on behalf of Commission 20 of the International Astronomical Union by the
              Minor Planet Center, Smithsonian Astrophysical Observatory,
                              Cambridge, MA 02138, U.S.A.
    
                 Prepared using the Tamkin Foundation Computer Network
    
                                  MPC@CFA.HARVARD.EDU
                URL https://www.minorplanetcenter.net/    ISSN 1523-6714
    
                                      2015 MJ130
    
    Observations:
         K15MD0J* C2015 06 22.53884 20 07 48.748-06 34 27.69         21.6 wLEN011F51
         K15MD0J  C2015 06 22.55063 20 07 50.161-06 34 31.12         21.8 wLEN011F51
         K15MD0J  C2015 06 22.56241 20 07 51.526-06 34 34.52         22.1 wLEN011F51
         K15MD0J _C2015 06 23.49760820 09 51.781-06 39 04.20         21.8 RtEN011568
         K15MD0J _C2015 06 23.49892520 09 51.935-06 39 04.61         21.8 RtEN011568
         K15MD0J _C2015 06 23.50022420 09 52.092-06 39 05.01         21.6 RtEN011568
         K15MD0J _C2015 06 23.50154120 09 52.252-06 39 05.41         21.5 RtEN011568
         K15MD0J  C2015 06 27.53138 20 18 35.315-07 04 31.84         21.5 wLEN011F51
         K15MD0J  C2015 06 27.54384 20 18 36.814-07 04 37.65         21.7 wLEN011F51
         K15MD0J  C2015 06 27.55629 20 18 38.308-07 04 43.23         21.7 wLEN011F51
         K15MD0J KC2015 07 07.40639 20 40 53.95 -08 52 11.9          20.6 RoEN011291
         K15MD0J KC2015 07 07.40858 20 40 54.23 -08 52 13.9                oEN011291
    
    Observer details:
    291 LPL/Spacewatch II.  Observer T. H. Bressi.  1.8-m f/2.7 reflector + CCD.
    568 Mauna Kea.  Observers R. J. Wainscoat, L. Wells.  Measurers M. Micheli,
        R. J. Wainscoat.  3.6-m Canada-France-Hawaii Telescope + CCD.
    F51 Pan-STARRS 1, Haleakala.  Observers B. Gibson, T. Goggia, N. Primak,
        A. Schultz, M. Willman.  Measurers K. Chambers, S. Chastel, L. Denneau,
        H. Flewelling, M. Huber, E. Lilly, E. Magnier, R. Wainscoat, C. Waters,
        R. Weryk.  1.8-m Ritchey-Chretien + CCD.
    
    Orbital elements:
    2015 MJ130                                               Earth MOID = 0.2284 AU
    Epoch 2015 June 27.0 TT = JDT 2457200.5                 MPC
    M 350.01820              (2000.0)            P               Q
    n   0.29261266     Peri.  184.30234     +0.64159562     +0.76011834
    a   2.2470219      Node   125.64518     -0.69991812     +0.63501075
    e   0.4468689      Incl.    7.26998     -0.31379881     +0.13777320
    P   3.37           H   22.5           G   0.15           U   5
    Residuals in seconds of arc
    150622 F51  0.2-  0.2+    150623 568  0.2-  0.0     150627 F51  0.0   0.1-
    150622 F51  0.3+  0.0     150623 568  0.1-  0.0     150627 F51  0.1-  0.0
    150622 F51  0.0   0.2-    150623 568  0.1-  0.0     150707 291  0.0   0.1+
    150623 568  0.2-  0.0     150627 F51  0.1+  0.1+    150707 291  0.0   0.1-
    
    Ephemeris:
    2015 MJ130               a,e,i = 2.25, 0.45, 7                   q = 1.2429
    Date    TT    R. A. (2000) Decl.     Delta      r     Elong.  Phase     V
    2015 06 07    19 35 59.7 -06 22 57   0.4197  1.3585   138.6    29.6    22.6
    ...
    2015 06 22    20 06 40.2 -06 31 54   0.3349  1.3056   145.3    26.3    21.9
    ...
    2015 06 30    20 24 02.7 -07 24 58   0.2998  1.2832   149.1    24.0    21.5
    ...
    2015 07 06    20 37 38.9 -08 32 23   0.2781  1.2694   152.3    21.9    21.3
    2015 07 07    20 39 57.6 -08 46 04   0.2748  1.2674   152.8    21.5    21.3
    2015 07 08    20 42 16.9 -09 00 28   0.2717  1.2654   153.4    21.1    21.2
    ...
    2015 07 14    20 56 24.3 -10 41 35   0.2555  1.2553   156.7    18.6    21.0
    ...
    2015 07 22    21 15 32.9 -13 31 39   0.2406  1.2464   161.4    15.1    20.7
    ...
    2015 08 06    21 50 31.6 -19 43 37   0.2341  1.2444   168.1     9.6    20.5
    
    A. U. Tomatic                (C) Copyright 2015 MPC           M.P.E.C. 2015-N11
    

    Read MPEC 2015-N10 Read MPEC 2015-N12


    MPEC number:

    Enter an MPEC number in one of the following forms:

    • 1997-B01 (the full form)
    • J97B01 (the packed version of the full form)
    • B01 (the abbreviated form)